Location: Alfortville
(48.8058°N, 2.4204°E)
Time: 19:19:07
(UTC+00:00)

IRAS Rocket - Pass Details

Date: 24 October 2021
Orbit: 847 x 878 km, 100.1° (Epoch: 07 December)

Event Time Altitude Azimuth Distance (km) Brightness Sun altitude
Rises 18:02:16 0° 21° (NNE) 3,456 7.1 -13.6°
Reaches altitude 10° 18:04:46 10° 28° (NNE) 2,510 6.4 -14.0°
Maximum altitude 18:10:06 45° 100° (E) 1,150 4.5 -14.9°
Drops below altitude 10° 18:15:21 10° 173° (S) 2,474 6.6 -15.7°
Sets 18:17:47 0° 180° (S) 3,402 7.4 -16.1°
